Year,Month,Day,Hour,Minute,Value (Times are PST for windgust in km/hr)
2017,06,15,00,00,1.60
2017,06,15,00,01,1.60
2017,06,15,00,02,3.20
2017,06,15,00,03,4.80
2017,06,15,00,04,3.20
2017,06,15,00,05,3.20
2017,06,15,00,06,1.60
2017,06,15,00,09,3.20
2017,06,15,00,10,3.20
2017,06,15,00,11,3.20
2017,06,15,00,12,3.20
2017,06,15,00,13,1.60
2017,06,15,00,14,1.60
2017,06,15,00,22,3.20
2017,06,15,00,23,3.20
2017,06,15,00,26,3.20
2017,06,15,00,27,1.60
2017,06,15,00,28,3.20
2017,06,15,00,30,1.60
2017,06,15,00,31,1.60
2017,06,15,00,32,1.60
2017,06,15,00,33,1.60
2017,06,15,00,34,1.60
2017,06,15,00,36,3.20
2017,06,15,00,37,1.60
2017,06,15,00,38,4.80
2017,06,15,00,39,3.20
2017,06,15,00,40,1.60
2017,06,15,00,41,1.60
2017,06,15,00,42,3.20
2017,06,15,00,43,1.60
2017,06,15,00,44,1.60
2017,06,15,00,45,3.20
2017,06,15,00,46,3.20
2017,06,15,00,47,3.20
2017,06,15,00,48,3.20
2017,06,15,00,49,1.60
2017,06,15,00,50,1.60
2017,06,15,00,51,3.20
2017,06,15,00,52,4.80
2017,06,15,00,53,4.80
2017,06,15,00,54,8.10
2017,06,15,00,55,6.40
2017,06,15,00,56,1.60
2017,06,15,00,59,6.40
2017,06,15,01,00,8.10
2017,06,15,01,01,6.40
2017,06,15,01,02,4.80
2017,06,15,01,03,8.10
2017,06,15,01,04,4.80
2017,06,15,01,05,3.20
2017,06,15,01,06,3.20
2017,06,15,01,08,1.60
2017,06,15,01,09,1.60
2017,06,15,01,10,1.60
2017,06,15,01,11,3.20
2017,06,15,01,12,1.60
2017,06,15,01,13,6.40
2017,06,15,01,14,3.20
2017,06,15,01,15,3.20
2017,06,15,01,16,6.40
2017,06,15,01,17,6.40
2017,06,15,01,18,3.20
2017,06,15,01,19,3.20
2017,06,15,01,20,1.60
2017,06,15,01,21,3.20
2017,06,15,01,22,1.60
2017,06,15,01,23,4.80
2017,06,15,01,24,6.40
2017,06,15,01,25,9.60
2017,06,15,01,26,4.80
2017,06,15,01,27,6.40
2017,06,15,01,28,3.20
2017,06,15,01,29,1.60
2017,06,15,01,37,3.20
2017,06,15,01,38,1.60
2017,06,15,01,39,1.60
2017,06,15,01,40,3.20
2017,06,15,01,41,3.20
2017,06,15,01,42,6.40
2017,06,15,01,43,3.20
2017,06,15,01,44,6.40
2017,06,15,01,45,3.20
2017,06,15,01,46,6.40
2017,06,15,01,47,3.20
2017,06,15,01,48,4.80
2017,06,15,01,49,6.40
2017,06,15,01,50,3.20
2017,06,15,01,51,3.20
2017,06,15,01,53,4.80
2017,06,15,01,54,3.20
2017,06,15,01,56,1.60
2017,06,15,01,57,3.20
2017,06,15,01,58,3.20
2017,06,15,01,59,1.60
2017,06,15,02,00,1.60
2017,06,15,02,01,1.60
2017,06,15,02,02,3.20
2017,06,15,02,03,4.80
2017,06,15,02,04,6.40
2017,06,15,02,05,3.20
2017,06,15,02,06,1.60
2017,06,15,02,07,4.80
2017,06,15,02,08,4.80
2017,06,15,02,09,3.20
2017,06,15,02,10,3.20
2017,06,15,02,11,1.60
2017,06,15,02,13,1.60
2017,06,15,02,14,1.60
2017,06,15,02,15,1.60
2017,06,15,02,16,3.20
2017,06,15,02,17,4.80
2017,06,15,02,18,3.20
2017,06,15,02,19,1.60
2017,06,15,02,21,1.60
2017,06,15,02,23,3.20
2017,06,15,02,24,1.60
2017,06,15,02,25,1.60
2017,06,15,02,26,4.80
2017,06,15,02,27,4.80
2017,06,15,02,28,4.80
2017,06,15,02,29,4.80
2017,06,15,02,30,3.20
2017,06,15,02,31,3.20
2017,06,15,02,32,4.80
2017,06,15,02,33,3.20
2017,06,15,02,34,8.10
2017,06,15,02,35,11.30
2017,06,15,02,36,3.20
2017,06,15,02,37,1.60
2017,06,15,02,38,9.60
2017,06,15,02,39,11.30
2017,06,15,02,40,4.80
2017,06,15,02,41,4.80
2017,06,15,02,42,11.30
2017,06,15,02,43,6.40
2017,06,15,02,44,8.10
2017,06,15,02,45,4.80
2017,06,15,02,46,6.40
2017,06,15,02,47,6.40
2017,06,15,02,48,6.40
2017,06,15,02,49,3.20
2017,06,15,02,50,8.10
2017,06,15,02,51,9.60
2017,06,15,02,52,6.40
2017,06,15,02,53,8.10
2017,06,15,02,54,8.10
2017,06,15,02,55,3.20
2017,06,15,02,56,8.10
2017,06,15,02,57,14.50
2017,06,15,02,58,8.10
2017,06,15,02,59,8.10
2017,06,15,03,00,11.30
2017,06,15,03,01,8.10
2017,06,15,03,02,8.10
2017,06,15,03,03,8.10
2017,06,15,03,04,12.90
2017,06,15,03,05,12.90
2017,06,15,03,06,6.40
2017,06,15,03,07,16.10
2017,06,15,03,08,14.50
2017,06,15,03,09,4.80
2017,06,15,03,10,12.90
2017,06,15,03,11,11.30
2017,06,15,03,12,12.90
2017,06,15,03,13,6.40
2017,06,15,03,14,6.40
2017,06,15,03,15,6.40
2017,06,15,03,16,8.10
2017,06,15,03,17,19.30
2017,06,15,03,18,12.90
2017,06,15,03,19,12.90
2017,06,15,03,20,14.50
2017,06,15,03,21,9.60
2017,06,15,03,22,12.90
2017,06,15,03,23,8.10
2017,06,15,03,24,8.10
2017,06,15,03,25,11.30
2017,06,15,03,26,9.60
2017,06,15,03,27,11.30
2017,06,15,03,28,12.90
2017,06,15,03,29,16.10
2017,06,15,03,30,11.30
2017,06,15,03,31,14.50
2017,06,15,03,32,12.90
2017,06,15,03,33,9.60
2017,06,15,03,34,14.50
2017,06,15,03,35,12.90
2017,06,15,03,36,12.90
2017,06,15,03,37,11.30
2017,06,15,03,38,16.10
2017,06,15,03,39,9.60
2017,06,15,03,40,9.60
2017,06,15,03,41,8.10
2017,06,15,03,42,8.10
2017,06,15,03,43,9.60
2017,06,15,03,44,12.90
2017,06,15,03,45,9.60
2017,06,15,03,46,14.50
2017,06,15,03,47,8.10
2017,06,15,03,48,4.80
2017,06,15,03,49,9.60
2017,06,15,03,50,9.60
2017,06,15,03,51,8.10
2017,06,15,03,52,11.30
2017,06,15,03,53,9.60
2017,06,15,03,54,9.60
2017,06,15,03,55,8.10
2017,06,15,03,56,8.10
2017,06,15,03,57,9.60
2017,06,15,03,58,8.10
2017,06,15,03,59,8.10
2017,06,15,04,00,12.90
2017,06,15,04,01,6.40
2017,06,15,04,02,8.10
2017,06,15,04,03,4.80
2017,06,15,04,04,8.10
2017,06,15,04,05,11.30
2017,06,15,04,06,8.10
2017,06,15,04,07,11.30
2017,06,15,04,08,11.30
2017,06,15,04,09,11.30
2017,06,15,04,10,9.60
2017,06,15,04,11,8.10
2017,06,15,04,12,6.40
2017,06,15,04,13,9.60
2017,06,15,04,14,6.40
2017,06,15,04,15,6.40
2017,06,15,04,16,6.40
2017,06,15,04,17,6.40
2017,06,15,04,18,6.40
2017,06,15,04,19,8.10
2017,06,15,04,20,9.60
2017,06,15,04,21,9.60
2017,06,15,04,22,8.10
2017,06,15,04,23,9.60
2017,06,15,04,24,11.30
2017,06,15,04,25,17.70
2017,06,15,04,26,16.10
2017,06,15,04,27,16.10
2017,06,15,04,28,22.50
2017,06,15,04,29,12.90
2017,06,15,04,30,14.50
2017,06,15,04,31,9.60
2017,06,15,04,32,24.20
2017,06,15,04,33,14.50
2017,06,15,04,34,24.20
2017,06,15,04,35,17.70
2017,06,15,04,36,12.90
2017,06,15,04,37,17.70
2017,06,15,04,38,14.50
2017,06,15,04,39,16.10
2017,06,15,04,40,14.50
2017,06,15,04,41,24.20
2017,06,15,04,42,17.70
2017,06,15,04,43,16.10
2017,06,15,04,44,19.30
2017,06,15,04,45,12.90
2017,06,15,04,46,24.20
2017,06,15,04,47,16.10
2017,06,15,04,48,16.10
2017,06,15,04,49,19.30
2017,06,15,04,50,16.10
2017,06,15,04,51,14.50
2017,06,15,04,52,11.30
2017,06,15,04,53,17.70
2017,06,15,04,54,17.70
2017,06,15,04,55,11.30
2017,06,15,04,56,19.30
2017,06,15,04,57,19.30
2017,06,15,04,58,19.30
2017,06,15,04,59,11.30
2017,06,15,05,00,9.60
2017,06,15,05,01,9.60
2017,06,15,05,02,14.50
2017,06,15,05,03,12.90
2017,06,15,05,04,8.10
2017,06,15,05,05,8.10
2017,06,15,05,06,12.90
2017,06,15,05,07,16.10
2017,06,15,05,08,14.50
2017,06,15,05,09,14.50
2017,06,15,05,10,14.50
2017,06,15,05,11,22.50
2017,06,15,05,12,16.10
2017,06,15,05,13,12.90
2017,06,15,05,14,19.30
2017,06,15,05,15,17.70
2017,06,15,05,16,11.30
2017,06,15,05,17,11.30
2017,06,15,05,18,14.50
2017,06,15,05,19,22.50
2017,06,15,05,20,14.50
2017,06,15,05,21,9.60
2017,06,15,05,22,14.50
2017,06,15,05,23,17.70
2017,06,15,05,24,19.30
2017,06,15,05,25,17.70
2017,06,15,05,26,22.50
2017,06,15,05,27,17.70
2017,06,15,05,28,19.30
2017,06,15,05,29,16.10
2017,06,15,05,30,14.50
2017,06,15,05,31,24.20
2017,06,15,05,32,12.90
2017,06,15,05,33,20.90
2017,06,15,05,34,20.90
2017,06,15,05,35,20.90
2017,06,15,05,36,22.50
2017,06,15,05,37,14.50
2017,06,15,05,38,17.70
2017,06,15,05,39,19.30
2017,06,15,05,40,19.30
2017,06,15,05,41,6.40
2017,06,15,05,42,14.50
2017,06,15,05,43,12.90
2017,06,15,05,44,11.30
2017,06,15,05,45,11.30
2017,06,15,05,46,14.50
2017,06,15,05,47,17.70
2017,06,15,05,48,20.90
2017,06,15,05,49,16.10
2017,06,15,05,50,6.40
2017,06,15,05,51,14.50
2017,06,15,05,52,9.60
2017,06,15,05,53,14.50
2017,06,15,05,54,11.30
2017,06,15,05,55,6.40
2017,06,15,05,56,12.90
2017,06,15,05,57,12.90
2017,06,15,05,58,9.60
2017,06,15,05,59,6.40
2017,06,15,06,00,17.70
2017,06,15,06,01,14.50
2017,06,15,06,02,22.50
2017,06,15,06,03,11.30
2017,06,15,06,04,11.30
2017,06,15,06,05,19.30
2017,06,15,06,06,16.10
2017,06,15,06,07,9.60
2017,06,15,06,08,17.70
2017,06,15,06,09,11.30
2017,06,15,06,10,12.90
2017,06,15,06,11,11.30
2017,06,15,06,12,16.10
2017,06,15,06,13,6.40
2017,06,15,06,14,8.10
2017,06,15,06,15,14.50
2017,06,15,06,16,16.10
2017,06,15,06,17,9.60
2017,06,15,06,18,12.90
2017,06,15,06,19,6.40
2017,06,15,06,20,14.50
2017,06,15,06,21,20.90
2017,06,15,06,22,14.50
2017,06,15,06,23,17.70
2017,06,15,06,24,12.90
2017,06,15,06,25,14.50
2017,06,15,06,26,12.90
2017,06,15,06,27,12.90
2017,06,15,06,28,16.10
2017,06,15,06,29,14.50
2017,06,15,06,30,16.10
2017,06,15,06,31,16.10
2017,06,15,06,32,20.90
2017,06,15,06,33,16.10
2017,06,15,06,34,11.30
2017,06,15,06,35,17.70
2017,06,15,06,36,11.30
2017,06,15,06,37,16.10
2017,06,15,06,38,16.10
2017,06,15,06,39,17.70
2017,06,15,06,40,14.50
2017,06,15,06,41,16.10
2017,06,15,06,42,19.30
2017,06,15,06,43,19.30
2017,06,15,06,44,17.70
2017,06,15,06,45,14.50
2017,06,15,06,46,12.90
2017,06,15,06,47,12.90
2017,06,15,06,48,17.70
2017,06,15,06,49,12.90
2017,06,15,06,50,16.10
2017,06,15,06,51,9.60
2017,06,15,06,52,11.30
2017,06,15,06,53,11.30
2017,06,15,06,54,25.70
2017,06,15,06,55,16.10
2017,06,15,06,56,20.90
2017,06,15,06,57,17.70
2017,06,15,06,58,17.70
2017,06,15,06,59,12.90
2017,06,15,07,00,8.10
2017,06,15,07,01,12.90
2017,06,15,07,02,16.10
2017,06,15,07,03,14.50
2017,06,15,07,04,14.50
2017,06,15,07,05,17.70
2017,06,15,07,06,16.10
2017,06,15,07,07,8.10
2017,06,15,07,08,19.30
2017,06,15,07,09,16.10
2017,06,15,07,10,19.30
2017,06,15,07,11,22.50
2017,06,15,07,12,20.90
2017,06,15,07,13,22.50
2017,06,15,07,14,22.50
2017,06,15,07,15,19.30
2017,06,15,07,16,17.70
2017,06,15,07,17,11.30
2017,06,15,07,18,14.50
2017,06,15,07,19,14.50
2017,06,15,07,20,11.30
2017,06,15,07,21,16.10
2017,06,15,07,22,22.50
2017,06,15,07,23,19.30
2017,06,15,07,24,16.10
2017,06,15,07,25,16.10
2017,06,15,07,26,27.40
2017,06,15,07,27,17.70
2017,06,15,07,28,22.50
2017,06,15,07,29,20.90
2017,06,15,07,30,16.10
2017,06,15,07,31,17.70
2017,06,15,07,32,19.30
2017,06,15,07,33,16.10
2017,06,15,07,34,14.50
2017,06,15,07,35,19.30
2017,06,15,07,36,16.10
2017,06,15,07,37,6.40
2017,06,15,07,38,11.30
2017,06,15,07,39,24.20
2017,06,15,07,40,19.30
2017,06,15,07,41,16.10
2017,06,15,07,42,22.50
2017,06,15,07,43,17.70
2017,06,15,07,44,22.50
2017,06,15,07,45,17.70
2017,06,15,07,46,17.70
2017,06,15,07,47,14.50
2017,06,15,07,48,12.90
2017,06,15,07,49,19.30
2017,06,15,07,50,24.20
2017,06,15,07,51,17.70
2017,06,15,07,52,25.70
2017,06,15,07,53,12.90
2017,06,15,07,54,19.30
2017,06,15,07,55,14.50
2017,06,15,07,56,14.50
2017,06,15,07,57,17.70
2017,06,15,07,58,19.30
2017,06,15,07,59,19.30
2017,06,15,08,00,20.90
2017,06,15,08,01,20.90
2017,06,15,08,02,12.90
2017,06,15,08,03,25.70
2017,06,15,08,04,16.10
2017,06,15,08,05,17.70
2017,06,15,08,06,17.70
2017,06,15,08,07,14.50
2017,06,15,08,08,17.70
2017,06,15,08,09,19.30
2017,06,15,08,10,17.70
2017,06,15,08,11,19.30
2017,06,15,08,12,12.90
2017,06,15,08,13,9.60
2017,06,15,08,14,16.10
2017,06,15,08,15,9.60
2017,06,15,08,16,11.30
2017,06,15,08,17,17.70
2017,06,15,08,18,25.70
2017,06,15,08,19,17.70
2017,06,15,08,20,17.70
2017,06,15,08,21,25.70
2017,06,15,08,22,25.70
2017,06,15,08,23,25.70
2017,06,15,08,24,24.20
2017,06,15,08,25,22.50
2017,06,15,08,26,20.90
2017,06,15,08,27,22.50
2017,06,15,08,28,17.70
2017,06,15,08,29,32.20
2017,06,15,08,30,14.50
2017,06,15,08,31,25.70
2017,06,15,08,32,17.70
2017,06,15,08,33,29.00
2017,06,15,08,34,27.40
2017,06,15,08,35,25.70
2017,06,15,08,36,27.40
2017,06,15,08,37,27.40
2017,06,15,08,38,24.20
2017,06,15,08,39,14.50
2017,06,15,08,40,35.40
2017,06,15,08,41,25.70
2017,06,15,08,42,29.00
2017,06,15,08,43,30.60
2017,06,15,08,44,22.50
2017,06,15,08,45,32.20
2017,06,15,08,46,20.90
2017,06,15,08,47,11.30
2017,06,15,08,48,16.10
2017,06,15,08,49,17.70
2017,06,15,08,50,14.50
2017,06,15,08,51,20.90
2017,06,15,08,52,16.10
2017,06,15,08,53,19.30
2017,06,15,08,54,19.30
2017,06,15,08,55,25.70
2017,06,15,08,56,25.70
2017,06,15,08,57,19.30
2017,06,15,08,58,20.90
2017,06,15,08,59,27.40
2017,06,15,09,00,19.30
2017,06,15,09,01,19.30
2017,06,15,09,02,20.90
2017,06,15,09,03,35.40
2017,06,15,09,04,19.30
2017,06,15,09,05,25.70
2017,06,15,09,06,27.40
2017,06,15,09,07,30.60
2017,06,15,09,08,29.00
2017,06,15,09,09,20.90
2017,06,15,09,10,25.70
2017,06,15,09,11,20.90
2017,06,15,09,12,22.50
2017,06,15,09,13,27.40
2017,06,15,09,14,24.20
2017,06,15,09,15,20.90
2017,06,15,09,16,24.20
2017,06,15,09,17,30.60
2017,06,15,09,18,17.70
2017,06,15,09,19,27.40
2017,06,15,09,20,14.50
2017,06,15,09,21,16.10
2017,06,15,09,22,32.20
2017,06,15,09,23,24.20
2017,06,15,09,24,24.20
2017,06,15,09,25,25.70
2017,06,15,09,26,22.50
2017,06,15,09,27,29.00
2017,06,15,09,28,19.30
2017,06,15,09,29,30.60
2017,06,15,09,30,30.60
2017,06,15,09,31,30.60
2017,06,15,09,32,12.90
2017,06,15,09,33,24.20
2017,06,15,09,34,27.40
2017,06,15,09,35,24.20
2017,06,15,09,36,24.20
2017,06,15,09,37,29.00
2017,06,15,09,38,37.00
2017,06,15,09,39,32.20
2017,06,15,09,40,17.70
2017,06,15,09,41,22.50
2017,06,15,09,42,27.40
2017,06,15,09,43,20.90
2017,06,15,09,44,33.80
2017,06,15,09,45,17.70
2017,06,15,09,46,19.30
2017,06,15,09,47,25.70
2017,06,15,09,48,22.50
2017,06,15,09,49,20.90
2017,06,15,09,50,22.50
2017,06,15,09,51,22.50
2017,06,15,09,52,22.50
2017,06,15,09,53,29.00
2017,06,15,09,54,29.00
2017,06,15,09,55,41.80
2017,06,15,09,56,20.90
2017,06,15,09,57,33.80
2017,06,15,09,58,30.60
2017,06,15,09,59,33.80
2017,06,15,10,00,27.40
2017,06,15,10,01,38.60
2017,06,15,10,02,27.40
2017,06,15,10,03,40.20
2017,06,15,10,04,24.20
2017,06,15,10,05,25.70
2017,06,15,10,06,30.60
2017,06,15,10,07,22.50
2017,06,15,10,08,25.70
2017,06,15,10,09,19.30
2017,06,15,10,10,24.20
2017,06,15,10,11,29.00
2017,06,15,10,12,22.50
2017,06,15,10,13,30.60
2017,06,15,10,14,22.50
2017,06,15,10,15,35.40
2017,06,15,10,16,37.00
2017,06,15,10,17,32.20
2017,06,15,10,18,29.00
2017,06,15,10,19,35.40
2017,06,15,10,20,30.60
2017,06,15,10,21,17.70
2017,06,15,10,22,19.30
2017,06,15,10,23,30.60
2017,06,15,10,24,27.40
2017,06,15,10,25,29.00
2017,06,15,10,26,32.20
2017,06,15,10,27,24.20
2017,06,15,10,28,24.20
2017,06,15,10,29,25.70
2017,06,15,10,30,22.50
2017,06,15,10,31,22.50
2017,06,15,10,32,16.10
2017,06,15,10,33,25.70
2017,06,15,10,34,33.80
2017,06,15,10,35,24.20
2017,06,15,10,36,41.80
2017,06,15,10,37,33.80
2017,06,15,10,38,33.80
2017,06,15,10,39,30.60
2017,06,15,10,40,24.20
2017,06,15,10,41,22.50
2017,06,15,10,42,24.20
2017,06,15,10,43,22.50
2017,06,15,10,44,25.70
2017,06,15,10,45,14.50
2017,06,15,10,46,38.60
2017,06,15,10,47,27.40
2017,06,15,10,48,33.80
2017,06,15,10,49,38.60
2017,06,15,10,50,32.20
2017,06,15,10,51,40.20
2017,06,15,10,52,35.40
2017,06,15,10,53,27.40
2017,06,15,10,54,43.50
2017,06,15,10,55,37.00
2017,06,15,10,56,17.70
2017,06,15,10,57,20.90
2017,06,15,10,58,24.20
2017,06,15,10,59,29.00
2017,06,15,11,00,29.00
2017,06,15,11,01,32.20
2017,06,15,11,02,37.00
2017,06,15,11,03,32.20
2017,06,15,11,04,33.80
2017,06,15,11,05,19.30
2017,06,15,11,06,32.20
2017,06,15,11,07,22.50
2017,06,15,11,08,19.30
2017,06,15,11,09,32.20
2017,06,15,11,10,27.40
2017,06,15,11,11,20.90
2017,06,15,11,12,33.80
2017,06,15,11,13,37.00
2017,06,15,11,14,27.40
2017,06,15,11,15,24.20
2017,06,15,11,16,24.20
2017,06,15,11,17,29.00
2017,06,15,11,18,29.00
2017,06,15,11,19,25.70
2017,06,15,11,20,24.20
2017,06,15,11,21,25.70
2017,06,15,11,22,32.20
2017,06,15,11,23,29.00
2017,06,15,11,24,30.60
2017,06,15,11,25,38.60
2017,06,15,11,26,25.70
2017,06,15,11,27,40.20
2017,06,15,11,28,30.60
2017,06,15,11,29,32.20
2017,06,15,11,30,14.50
2017,06,15,11,31,27.40
2017,06,15,11,32,24.20
2017,06,15,11,33,19.30
2017,06,15,11,34,25.70
2017,06,15,11,35,27.40
2017,06,15,11,36,27.40
2017,06,15,11,37,25.70
2017,06,15,11,38,30.60
2017,06,15,11,39,32.20
2017,06,15,11,40,24.20
2017,06,15,11,41,33.80
2017,06,15,11,42,33.80
2017,06,15,11,43,30.60
2017,06,15,11,44,17.70
2017,06,15,11,45,19.30
2017,06,15,11,46,22.50
2017,06,15,11,47,35.40
2017,06,15,11,48,20.90
2017,06,15,11,49,27.40
2017,06,15,11,50,25.70
2017,06,15,11,51,24.20
2017,06,15,11,52,22.50
2017,06,15,11,53,27.40
2017,06,15,11,54,24.20
2017,06,15,11,55,24.20
2017,06,15,11,56,27.40
2017,06,15,11,57,20.90
2017,06,15,11,58,27.40
2017,06,15,11,59,30.60
2017,06,15,12,00,24.20
2017,06,15,12,01,24.20
2017,06,15,12,02,16.10
2017,06,15,12,03,19.30
2017,06,15,12,04,40.20
2017,06,15,12,05,20.90
2017,06,15,12,06,19.30
2017,06,15,12,07,14.50
2017,06,15,12,08,24.20
2017,06,15,12,09,30.60
2017,06,15,12,10,22.50
2017,06,15,12,11,25.70
2017,06,15,12,12,35.40
2017,06,15,12,13,16.10
2017,06,15,12,14,19.30
2017,06,15,12,15,24.20
2017,06,15,12,16,37.00
2017,06,15,12,17,33.80
2017,06,15,12,18,24.20
2017,06,15,12,19,30.60
2017,06,15,12,20,24.20
2017,06,15,12,21,37.00
2017,06,15,12,22,27.40
2017,06,15,12,23,29.00
2017,06,15,12,24,37.00
2017,06,15,12,25,22.50
2017,06,15,12,26,30.60
2017,06,15,12,27,30.60
2017,06,15,12,28,29.00
2017,06,15,12,29,19.30
2017,06,15,12,30,29.00
2017,06,15,12,31,35.40
2017,06,15,12,32,33.80
2017,06,15,12,33,27.40
2017,06,15,12,34,19.30
2017,06,15,12,35,46.70
2017,06,15,12,36,24.20
2017,06,15,12,37,24.20
2017,06,15,12,38,22.50
2017,06,15,12,39,22.50
2017,06,15,12,40,35.40
2017,06,15,12,41,32.20
2017,06,15,12,42,27.40
2017,06,15,12,43,27.40
2017,06,15,12,44,24.20
2017,06,15,12,45,40.20
2017,06,15,12,46,33.80
2017,06,15,12,47,33.80
2017,06,15,12,48,25.70
2017,06,15,12,49,24.20
2017,06,15,12,50,30.60
2017,06,15,12,51,30.60
2017,06,15,12,52,27.40
2017,06,15,12,53,25.70
2017,06,15,12,54,37.00
2017,06,15,12,55,33.80
2017,06,15,12,56,22.50
2017,06,15,12,57,22.50
2017,06,15,12,58,35.40
2017,06,15,12,59,29.00
2017,06,15,13,00,30.60
2017,06,15,13,01,38.60
2017,06,15,13,02,40.20
2017,06,15,13,03,37.00
2017,06,15,13,04,43.50
2017,06,15,13,05,32.20
2017,06,15,13,06,25.70
2017,06,15,13,07,27.40
2017,06,15,13,08,30.60
2017,06,15,13,09,22.50
2017,06,15,13,10,29.00
2017,06,15,13,11,29.00
2017,06,15,13,12,38.60
2017,06,15,13,13,30.60
2017,06,15,13,14,27.40
2017,06,15,13,15,22.50
2017,06,15,13,16,37.00
2017,06,15,13,17,14.50
2017,06,15,13,18,38.60
2017,06,15,13,19,35.40
2017,06,15,13,20,19.30
2017,06,15,13,21,25.70
2017,06,15,13,22,29.00
2017,06,15,13,23,27.40
2017,06,15,13,24,25.70
2017,06,15,13,25,24.20
2017,06,15,13,26,30.60
2017,06,15,13,27,22.50
2017,06,15,13,28,29.00
2017,06,15,13,29,19.30
2017,06,15,13,30,27.40
2017,06,15,13,31,37.00
2017,06,15,13,32,20.90
2017,06,15,13,33,19.30
2017,06,15,13,34,32.20
2017,06,15,13,35,14.50
2017,06,15,13,36,16.10
2017,06,15,13,37,33.80
2017,06,15,13,38,22.50
2017,06,15,13,39,17.70
2017,06,15,13,40,29.00
2017,06,15,13,41,29.00
2017,06,15,13,42,33.80
2017,06,15,13,43,17.70
2017,06,15,13,44,8.10
2017,06,15,13,45,24.20
2017,06,15,13,46,32.20
2017,06,15,13,47,24.20
2017,06,15,13,48,35.40
2017,06,15,13,49,35.40
2017,06,15,13,50,27.40
2017,06,15,13,51,30.60
2017,06,15,13,52,22.50
2017,06,15,13,53,19.30
2017,06,15,13,54,27.40
2017,06,15,13,55,37.00
2017,06,15,13,56,32.20
2017,06,15,13,57,25.70
2017,06,15,13,58,33.80
2017,06,15,13,59,25.70
2017,06,15,14,00,25.70
2017,06,15,14,01,40.20
2017,06,15,14,02,37.00
2017,06,15,14,03,35.40
2017,06,15,14,04,33.80
2017,06,15,14,05,25.70
2017,06,15,14,06,19.30
2017,06,15,14,07,30.60
2017,06,15,14,08,35.40
2017,06,15,14,09,41.80
2017,06,15,14,10,32.20
2017,06,15,14,11,22.50
2017,06,15,14,12,35.40
2017,06,15,14,13,41.80
2017,06,15,14,14,35.40
2017,06,15,14,15,29.00
2017,06,15,14,16,40.20
2017,06,15,14,17,30.60
2017,06,15,14,18,30.60
2017,06,15,14,19,41.80
2017,06,15,14,20,33.80
2017,06,15,14,21,37.00
2017,06,15,14,22,29.00
2017,06,15,14,23,32.20
2017,06,15,14,24,27.40
2017,06,15,14,25,29.00
2017,06,15,14,26,25.70
2017,06,15,14,27,32.20
2017,06,15,14,28,24.20
2017,06,15,14,29,30.60
2017,06,15,14,30,33.80
2017,06,15,14,31,29.00
2017,06,15,14,32,27.40
2017,06,15,14,33,33.80
2017,06,15,14,34,30.60
2017,06,15,14,35,27.40
2017,06,15,14,36,24.20
2017,06,15,14,37,25.70
2017,06,15,14,38,35.40
2017,06,15,14,39,14.50
2017,06,15,14,40,30.60
2017,06,15,14,41,51.50
2017,06,15,14,42,27.40
2017,06,15,14,43,22.50
2017,06,15,14,44,27.40
2017,06,15,14,45,35.40
2017,06,15,14,46,27.40
2017,06,15,14,47,37.00
2017,06,15,14,48,33.80
2017,06,15,14,49,37.00
2017,06,15,14,50,27.40
2017,06,15,14,51,32.20
2017,06,15,14,52,32.20
2017,06,15,14,53,27.40
2017,06,15,14,54,30.60
2017,06,15,14,55,30.60
2017,06,15,14,56,25.70
2017,06,15,14,57,25.70
2017,06,15,14,58,20.90
2017,06,15,14,59,16.10
2017,06,15,15,00,25.70
2017,06,15,15,01,24.20
2017,06,15,15,02,29.00
2017,06,15,15,03,24.20
2017,06,15,15,04,17.70
2017,06,15,15,05,29.00
2017,06,15,15,06,20.90
2017,06,15,15,07,33.80
2017,06,15,15,08,29.00
2017,06,15,15,09,25.70
2017,06,15,15,10,27.40
2017,06,15,15,11,33.80
2017,06,15,15,12,20.90
2017,06,15,15,13,27.40
2017,06,15,15,14,24.20
2017,06,15,15,15,29.00
2017,06,15,15,16,35.40
2017,06,15,15,17,27.40
2017,06,15,15,18,30.60
2017,06,15,15,19,27.40
2017,06,15,15,20,43.50
2017,06,15,15,21,24.20
2017,06,15,15,22,29.00
2017,06,15,15,23,32.20
2017,06,15,15,24,35.40
2017,06,15,15,25,30.60
2017,06,15,15,26,25.70
2017,06,15,15,27,17.70
2017,06,15,15,28,24.20
2017,06,15,15,29,19.30
2017,06,15,15,30,22.50
2017,06,15,15,31,16.10
2017,06,15,15,32,24.20
2017,06,15,15,33,40.20
2017,06,15,15,34,25.70
2017,06,15,15,35,29.00
2017,06,15,15,36,35.40
2017,06,15,15,37,27.40
2017,06,15,15,38,17.70
2017,06,15,15,39,38.60
2017,06,15,15,40,37.00
2017,06,15,15,41,19.30
2017,06,15,15,42,19.30
2017,06,15,15,43,38.60
2017,06,15,15,44,30.60
2017,06,15,15,45,24.20
2017,06,15,15,46,20.90
2017,06,15,15,47,24.20
2017,06,15,15,48,25.70
2017,06,15,15,49,27.40
2017,06,15,15,50,33.80
2017,06,15,15,51,30.60
2017,06,15,15,52,33.80
2017,06,15,15,53,37.00
2017,06,15,15,54,35.40
2017,06,15,15,55,25.70
2017,06,15,15,56,16.10
2017,06,15,15,57,25.70
2017,06,15,15,58,30.60
2017,06,15,15,59,27.40
2017,06,15,16,00,25.70
2017,06,15,16,01,27.40
2017,06,15,16,02,27.40
2017,06,15,16,03,30.60
2017,06,15,16,04,38.60
2017,06,15,16,05,32.20
2017,06,15,16,06,29.00
2017,06,15,16,07,32.20
2017,06,15,16,08,29.00
2017,06,15,16,09,38.60
2017,06,15,16,10,20.90
2017,06,15,16,11,24.20
2017,06,15,16,12,20.90
2017,06,15,16,13,45.10
2017,06,15,16,14,41.80
2017,06,15,16,15,29.00
2017,06,15,16,16,30.60
2017,06,15,16,17,30.60
2017,06,15,16,18,37.00
2017,06,15,16,19,27.40
2017,06,15,16,20,25.70
2017,06,15,16,21,25.70
2017,06,15,16,22,37.00
2017,06,15,16,23,25.70
2017,06,15,16,24,30.60
2017,06,15,16,25,27.40
2017,06,15,16,26,33.80
2017,06,15,16,27,37.00
2017,06,15,16,28,30.60
2017,06,15,16,29,37.00
2017,06,15,16,30,33.80
2017,06,15,16,31,41.80
2017,06,15,16,32,19.30
2017,06,15,16,33,40.20
2017,06,15,16,34,30.60
2017,06,15,16,35,22.50
2017,06,15,16,36,40.20
2017,06,15,16,37,32.20
2017,06,15,16,38,19.30
2017,06,15,16,39,35.40
2017,06,15,16,40,41.80
2017,06,15,16,41,43.50
2017,06,15,16,42,20.90
2017,06,15,16,43,24.20
2017,06,15,16,44,37.00
2017,06,15,16,45,32.20
2017,06,15,16,46,38.60
2017,06,15,16,47,16.10
2017,06,15,16,48,20.90
2017,06,15,16,49,38.60
2017,06,15,16,50,27.40
2017,06,15,16,51,25.70
2017,06,15,16,52,38.60
2017,06,15,16,53,24.20
2017,06,15,16,54,22.50
2017,06,15,16,55,30.60
2017,06,15,16,56,27.40
2017,06,15,16,57,38.60
2017,06,15,16,58,45.10
2017,06,15,16,59,24.20
2017,06,15,17,00,27.40
2017,06,15,17,01,45.10
2017,06,15,17,02,20.90
2017,06,15,17,03,30.60
2017,06,15,17,04,27.40
2017,06,15,17,05,40.20
2017,06,15,17,06,19.30
2017,06,15,17,07,38.60
2017,06,15,17,08,35.40
2017,06,15,17,09,33.80
2017,06,15,17,10,33.80
2017,06,15,17,11,22.50
2017,06,15,17,12,33.80
2017,06,15,17,13,29.00
2017,06,15,17,14,35.40
2017,06,15,17,15,24.20
2017,06,15,17,16,25.70
2017,06,15,17,17,14.50
2017,06,15,17,18,33.80
2017,06,15,17,19,37.00
2017,06,15,17,20,32.20
2017,06,15,17,21,35.40
2017,06,15,17,22,35.40
2017,06,15,17,23,35.40
2017,06,15,17,24,27.40
2017,06,15,17,25,20.90
2017,06,15,17,26,33.80
2017,06,15,17,27,40.20
2017,06,15,17,28,27.40
2017,06,15,17,29,32.20
2017,06,15,17,30,30.60
2017,06,15,17,31,30.60
2017,06,15,17,32,24.20
2017,06,15,17,33,29.00
2017,06,15,17,34,24.20
2017,06,15,17,35,27.40
2017,06,15,17,36,27.40
2017,06,15,17,37,32.20
2017,06,15,17,38,40.20
2017,06,15,17,39,20.90
2017,06,15,17,40,27.40
2017,06,15,17,41,29.00
2017,06,15,17,42,20.90
2017,06,15,17,43,24.20
2017,06,15,17,44,46.70
2017,06,15,17,45,35.40
2017,06,15,17,46,19.30
2017,06,15,17,47,29.00
2017,06,15,17,48,22.50
2017,06,15,17,49,27.40
2017,06,15,17,50,30.60
2017,06,15,17,51,16.10
2017,06,15,17,52,20.90
2017,06,15,17,53,32.20
2017,06,15,17,54,27.40
2017,06,15,17,55,25.70
2017,06,15,17,56,29.00
2017,06,15,17,57,25.70